Change the Weather History Date:

Sunday, August 18, 2013

  Actual Average Record
Temperature  
Mean Temperature 60 °F -  
Max Temperature 72 °F 63 °F 85 °F (2012)
Min Temperature 48 °F 41 °F 42 °F (1996)
Degree Days  
Heating Degree Days 5    
Growing Degree Days 10 (Base 50)    
Moisture  
Dew Point 52 °F    
Average Humidity 87    
Maximum Humidity 100    
Minimum Humidity 49    
Precipitation  
Precipitation 0.08 in 0.07 in - ()
Sea Level Pressure  
Sea Level Pressure 29.61 in    
Wind  
Wind Speed 4 mph ()    
Max Wind Speed 24 mph    
Max Gust Speed 36 mph    
Visibility 10.6 miles    
Events Fog , Rain , Thunderstorm    
Averages and records for this station are not official NWS values.
T = Trace of Precipitation, MM = Missing Value Source: Averaged Metar Reports

Daily Weather History Graph

Daily Weather History Graph

Search for Another Location

Airport or City:

Trip Planner

Search our weather history database for the weather conditions in past years. The results will help you decide how hot, cold, wet, or windy it might be!

Date:

Astronomy

Aug. 18, 2013 Rise Set
Actual Time 5:37 AM PDT 8:48 PM PDT
Civil Twilight 4:50 AM PDT 9:35 PM PDT
Nautical Twilight 3:44 AM PDT 10:40 PM PDT
Astronomical Twilight 1:38 AM PDT 12:33 AM PDT
Moon 7:10 PM PDT (8/18) 2:32 AM PDT (8/18)
Length of Visible Light 16h 45m
Length of Day
15h 11m
Waxing Gibbous, 93% of the Moon is Illuminated
Aug 18
Waxing Gibbous
Aug 20
Full
Aug 28
Last Quarter
Sep 5
New
Sep 12
First Quarter

Hourly Weather History & Observations

Time (PDT) Temp. Dew Point Humidity Pressure Visibility Wind Dir Wind Speed Gust Speed Precip Events Conditions
12:00 AM 53.6 °F 51.8 °F 94% 29.67 in 15.0 mi West 2.3 mph - N/A   Scattered Clouds
1:00 AM 51.8 °F 51.8 °F 100% 29.67 in 15.0 mi West 2.3 mph - N/A   Mostly Cloudy
2:00 AM 51.8 °F 50.0 °F 94% 29.67 in 15.0 mi West 2.3 mph - N/A   Mostly Cloudy
3:00 AM 50.0 °F 50.0 °F 100% 29.65 in 15.0 mi SW 2.3 mph - N/A   Partly Cloudy
4:00 AM 51.8 °F 51.8 °F 100% 29.66 in 4.0 mi South 4.6 mph - N/A   Partly Cloudy
4:07 AM 51.8 °F 51.8 °F 100% 29.66 in 1.0 mi South 3.5 mph - N/A   Partly Cloudy
5:00 AM 51 °F 51 °F 98% 29.65 in 0 mi South 2.3 mph - - Fog Shallow Fog
5:00 AM 50.0 °F 50.0 °F 100% 29.65 in 0.5 mi Variable 2.3 mph - N/A Fog Fog
5:18 AM 50.0 °F 50.0 °F 100% 29.65 in 0.2 mi Variable 2.3 mph - N/A Fog Fog
5:48 AM 50.0 °F 50.0 °F 100% 29.64 in 0.1 mi South 3.5 mph - N/A Fog Fog
6:00 AM 51.8 °F 50.0 °F 94% 29.64 in 0.2 mi Calm Calm - N/A Fog Fog
7:00 AM 50.0 °F 50.0 °F 100% 29.63 in 0.2 mi South 5.8 mph - N/A Fog Fog
7:41 AM 50.0 °F 50.0 °F 100% 29.62 in 0.5 mi South 6.9 mph - N/A Fog Fog
8:00 AM 51.8 °F 51.8 °F 100% 29.62 in 10.0 mi South 4.6 mph - N/A   Mostly Cloudy
9:00 AM 55.4 °F 51.8 °F 88% 29.61 in 30.0 mi South 5.8 mph - N/A   Mostly Cloudy
10:00 AM 55.4 °F 51.8 °F 88% 29.61 in 30.0 mi South 6.9 mph - N/A   Mostly Cloudy
11:00 AM 58 °F 54 °F 83% 29.60 in 28 mi SSE 2.3 mph - -   Partly Cloudy
11:00 AM 57.2 °F 53.6 °F 88% 29.60 in 30.0 mi SSE 2.3 mph - N/A   Mostly Cloudy
12:00 PM 64.4 °F 57.2 °F 77% 29.59 in 30.0 mi SE 3.5 mph - N/A   Overcast
1:00 PM 69.8 °F 55.4 °F 60% 29.57 in 30.0 mi Calm Calm - N/A   Mostly Cloudy
2:00 PM 69.8 °F 51.8 °F 53% 29.55 in 30.0 mi East 3.5 mph - N/A   Mostly Cloudy
3:00 PM 69.8 °F 50.0 °F 49% 29.52 in 20.0 mi Variable 2.3 mph - N/A Thunderstorm Thunderstorm
3:27 PM 66.2 °F 48.2 °F 52% 29.57 in 12.0 mi SW 24.2 mph 35.7 mph N/A Rain , Thunderstorm Light Thunderstorms and Rain
4:00 PM 57.2 °F 51.8 °F 82% 29.59 in 12.0 mi WNW 12.7 mph - N/A Rain , Thunderstorm Light Thunderstorms and Rain
4:47 PM 57.2 °F 53.6 °F 88% 29.59 in 15.0 mi WNW 5.8 mph - N/A Rain Light Rain Showers
5:00 PM 58 °F 53 °F 79% 29.59 in 15 mi NW 5.8 mph - - Rain Light Rain Showers
5:00 PM 57.2 °F 53.6 °F 88% 29.59 in 15.0 mi NW 5.8 mph - N/A Rain Light Rain Showers
5:14 PM 60.8 °F 53.6 °F 77% 29.59 in 15.0 mi NW 6.9 mph - N/A   Mostly Cloudy
6:00 PM 62.6 °F 53.6 °F 72% 29.57 in 15.0 mi NE 4.6 mph - N/A   Scattered Clouds
7:00 PM 60.8 °F 55.4 °F 82% 29.57 in 20.0 mi SE 2.3 mph - N/A   Mostly Cloudy
7:14 PM 60.8 °F 55.4 °F 82% 29.59 in 12.0 mi WSW 12.7 mph 21.9 mph N/A Rain Light Rain Showers
8:00 PM 55.4 °F 51.8 °F 88% 29.59 in 15.0 mi South 6.9 mph - N/A   Mostly Cloudy
9:00 PM 55.4 °F 51.8 °F 88% 29.59 in 20.0 mi South 3.5 mph - N/A   Mostly Cloudy
10:00 PM 53.6 °F 50.0 °F 88% 29.59 in 15.0 mi SW 3.5 mph - N/A   Scattered Clouds
11:00 PM 53 °F 51 °F 91% 29.60 in 15 mi SSW 8.1 mph - -   Partly Cloudy
11:00 PM 53.6 °F 51.8 °F 94% 29.59 in 15.0 mi South 8.1 mph - N/A   Partly Cloudy